Wind_Speed
22 20 14 2 4 3 4 6 27 25 18 6 10 8 17 9 6 4 21 27 30 26 22 18 17 16 16 17 16 14 13 13 13 14 15 16 16 16 15 15 14 13 12 10 8 7 6 6 6
24 23 3 2 3 2 6 8 17 16 15 10 11 14 5 4 4 16 15 24 26 26 23 20 17 16 16 16 15 14 13 13 13 13 14 14 14 14 14 14 13 12 10 8 6 5 3 2 3
24 9 2 4 2 3 5 5 3 20 28 19 8 5 9 10 6 6 30 23 25 22 21 20 17 16 16 15 15 13 13 13 13 13 13 13 13 12 12 12 11 10 9 7 5 4 3 1 1
9 3 4 2 7 11 1 3 6 0 14 17 18 10 9 16 11 21 29 21 23 20 20 19 16 16 15 15 15 14 13 13 13 12 12 12 12 11 11 11 10 8 6 5 4 3 2 0 1
8 1 2 3 9 7 15 3 3 6 4 16 20 10 9 19 31 36 29 23 24 19 20 18 16 15 14 14 13 13 13 13 13 12 12 11 11 11 11 10 9 7 6 4 3 2 1 1 2
3 1 5 4 8 11 5 7 7 12 14 9 21 15 7 25 28 33 29 31 26 21 20 18 15 13 13 12 12 12 13 13 13 12 12 12 12 12 12 12 11 10 7 5 3 2 2 3 4
3 1 5 6 9 9 10 23 7 7 8 6 15 14 7 13 27 31 33 35 28 22 25 22 19 15 13 12 11 11 11 12 12 12 12 11 10 11 11 11 11 10 8 5 4 4 4 5 6
2 2 7 4 8 5 12 14 9 10 6 7 7 5 3 4 28 31 35 37 29 25 26 26 24 22 17 15 13 12 12 12 12 12 11 11 11 10 10 10 10 8 6 5 5 5 5 6 8
3 3 3 5 6 6 10 17 13 15 4 8 7 11 7 6 16 29 28 33 33 30 29 28 25 21 19 17 15 13 13 12 12 12 10 10 9 8 8 7 7 6 5 5 5 6 6 8 11
2 2 3 4 5 7 11 11 10 13 13 6 7 7 10 6 3 4 10 21 29 30 30 27 23 22 22 20 18 16 15 14 12 11 10 9 8 7 4 5 5 4 5 6 5 7 8 10 12
7 6 6 7 3 5 11 16 9 10 9 7 6 5 5 9 10 10 12 16 28 30 32 28 23 24 26 22 22 18 17 15 12 9 7 8 11 11 10 9 12 8 6 5 3 7 6 7 14
7 10 10 10 5 5 14 9 7 7 9 5 7 7 6 9 9 10 13 22 26 26 33 31 24 18 29 26 21 17 17 15 12 12 9 11 10 11 15 9 7 9 6 5 3 4 4 7 10
7 10 11 10 7 8 5 7 9 7 9 10 4 4 7 2 6 10 12 13 29 29 26 24 19 18 19 16 15 16 17 16 14 14 14 12 11 15 11 10 5 5 7 3 1 6 7 9 13
11 11 10 9 11 3 1 9 3 9 5 8 8 4 6 3 6 2 10 10 24 22 23 21 20 12 5 8 7 10 19 16 16 16 16 10 6 4 2 3 6 3 4 2 6 9 9 10 12
7 4 6 5 7 7 4 11 9 8 9 8 3 4 4 6 13 1 7 13 20 22 18 15 17 13 8 8 7 7 12 11 14 12 16 11 7 10 9 6 6 9 7 7 8 6 7 11 14
7 4 2 7 9 10 13 11 11 10 10 9 5 2 6 8 5 12 15 17 20 16 15 11 11 8 8 12 12 11 9 8 9 8 7 8 22 20 15 11 9 8 9 9 6 8 10 15 18
5 6 9 17 16 11 10 4 12 8 8 7 6 5 5 3 15 26 25 24 21 19 9 8 6 11 9 13 10 10 8 7 8 13 11 11 16 14 14 11 7 6 7 5 7 9 14 18 21
8 8 9 14 19 16 8 6 5 4 7 8 6 5 1 10 9 22 25 23 21 20 14 7 12 8 5 5 9 6 8 8 10 10 20 16 19 16 14 10 10 6 3 2 8 12 14 15 19
15 12 7 3 4 7 8 2 6 9 4 8 8 6 13 12 9 25 27 27 24 23 21 18 15 11 4 3 7 5 10 9 12 19 19 20 15 12 11 10 7 4 1 6 9 10 13 19 22
3 5 8 4 9 6 4 8 9 8 8 6 9 7 14 11 11 16 25 25 24 22 20 25 16 9 2 4 6 6 5 22 23 20 16 13 12 10 7 4 2 2 4 6 9 13 15 16 19
4 3 7 5 4 3 2 6 10 9 8 8 8 11 13 14 13 11 18 25 22 22 22 22 22 20 17 11 9 12 11 18 13 14 14 14 11 6 3 2 1 2 6 9 12 13 16 18 21
1 7 9 10 8 2 4 5 8 5 8 10 9 10 12 13 11 12 15 21 20 16 11 12 18 20 22 24 21 20 17 5 7 14 12 10 6 4 2 2 2 3 7 11 14 14 14 16 21
3 7 5 5 6 6 10 2 8 7 9 9 9 9 9 10 11 12 14 21 21 16 11 8 9 14 18 20 21 21 18 19 18 11 7 8 2 3 3 3 1 5 12 14 13 16 20 18 20
5 5 7 6 3 3 15 8 6 3 9 7 5 9 9 17 15 9 17 23 16 15 11 9 11 9 11 12 11 12 13 15 17 15 11 10 9 9 9 8 9 13 16 15 19 19 20 21 22
4 6 4 5 1 5 11 5 9 18 22 18 20 16 13 13 12 13 9 16 25 21 21 17 22 23 13 8 6 8 10 8 7 9 9 10 9 10 13 14 13 14 18 20 22 22 22 22 23
6 4 3 2 2 4 8 6 4 14 16 15 12 9 9 8 8 9 11 17 14 13 14 13 13 15 16 18 18 8 10 13 10 9 9 7 9 9 9 10 16 18 21 22 22 24 25 24 26
6 4 3 2 5 5 3 4 8 9 8 10 9 8 7 9 9 8 13 13 13 9 12 15 19 16 17 13 17 16 12 13 14 14 14 14 12 11 12 15 17 18 18 20 24 26 27 25 26
3 3 5 4 0 3 4 7 5 13 13 13 9 12 11 9 11 12 18 23 27 28 28 28 28 29 26 21 19 19 18 13 10 13 13 14 11 10 10 12 14 16 20 19 18 26 28 27 26
4 3 4 2 2 2 2 5 6 7 4 6 11 9 12 16 14 14 19 22 24 27 27 24 26 24 25 22 20 21 17 14 14 12 9 12 12 10 8 13 15 19 18 17 19 17 25 24 26
4 2 2 4 4 1 5 5 7 13 15 15 17 15 12 10 11 12 19 24 26 25 25 24 25 23 21 20 21 18 16 12 10 8 6 9 11 10 15 16 18 21 17 15 19 24 23 26 27
Wind_Direction
320 322 307 267 34 80 261 319 103 143 171 185 145 146 159 156 169 162 144 134 138 140 138 131 125 124 127 132 132 127 123 122 114 116 118 121 123 121 119 118 115 115 118 120 119 116 97 74 67
317 324 199 271 93 356 293 78 96 114 123 130 142 134 178 124 253 119 120 135 140 141 139 132 128 126 130 134 135 134 132 131 124 123 124 127 130 132 128 124 119 117 119 124 127 128 114 73 59
309 284 72 148 211 193 257 300 91 122 140 160 120 167 152 141 176 86 130 133 140 141 141 134 131 128 133 137 138 139 138 138 133 130 131 134 137 141 140 135 128 124 124 124 129 129 123 109 6
304 35 327 102 275 282 20 328 351 353 152 135 145 78 87 129 132 129 131 129 139 143 144 138 136 133 136 141 143 145 146 146 144 138 139 142 146 152 156 155 150 143 137 134 143 147 146 187 290
275 323 312 324 289 268 266 338 320 310 62 120 112 114 95 106 129 133 138 136 144 143 148 141 142 138 137 142 146 149 151 152 152 150 151 153 157 160 165 171 170 166 158 153 146 151 177 221 268
326 95 357 326 329 323 356 0 19 40 70 56 108 119 119 133 136 145 145 142 152 143 150 149 148 146 143 146 151 154 157 159 161 164 164 166 168 170 173 177 179 180 179 180 192 210 245 264 268
209 285 261 336 359 341 342 351 43 74 52 59 122 120 143 158 156 151 146 154 155 157 161 161 160 157 155 155 157 158 161 165 170 172 174 175 176 177 179 181 184 187 192 206 232 259 268 275 283
285 75 342 16 2 324 304 350 356 64 32 59 107 114 166 157 155 154 148 156 158 159 166 167 167 164 164 164 166 166 167 170 175 180 183 183 183 182 185 187 190 196 210 231 256 271 279 286 288
287 19 336 325 351 296 320 341 350 339 51 90 100 120 143 115 156 152 150 153 159 165 168 170 169 168 168 172 170 173 175 179 183 186 189 190 189 189 195 192 195 205 230 257 273 282 288 294 293
187 182 205 245 293 351 327 310 338 349 346 34 86 84 119 141 292 80 170 171 163 165 163 166 161 174 171 176 177 180 184 186 186 188 190 188 178 179 179 196 213 235 257 260 283 292 287 296 312
239 225 229 246 280 77 296 291 338 356 344 32 37 49 74 58 14 4 343 18 180 161 162 168 167 171 174 186 178 182 192 186 185 181 179 188 186 211 209 209 217 232 247 239 307 322 295 317 322
198 236 244 250 190 193 218 300 328 324 295 39 59 88 55 12 356 345 351 72 97 138 159 172 171 167 183 190 180 183 183 180 171 182 170 178 205 233 207 194 205 203 219 207 213 351 338 324 322
234 220 218 239 255 192 249 279 270 276 299 323 28 69 110 40 306 309 309 88 115 126 143 150 149 124 126 139 196 195 198 192 179 181 183 189 193 160 148 157 167 215 219 184 172 1 349 341 338
260 281 188 209 236 213 239 260 309 288 291 296 329 52 34 1 294 250 58 56 131 124 129 142 143 151 147 112 137 170 194 190 195 191 191 204 167 136 28 183 173 194 187 103 10 355 334 358 355
272 317 298 210 189 219 256 305 280 268 247 211 118 63 22 332 322 245 115 91 134 129 136 138 149 157 182 179 174 182 175 189 189 213 194 207 179 141 154 189 278 117 105 65 26 10 357 333 329
306 9 315 254 241 229 162 230 269 277 271 147 155 300 267 253 242 50 100 95 84 140 129 138 156 183 192 202 204 218 238 214 225 212 169 205 199 182 181 206 140 99 83 50 26 3 341 334 338
317 242 257 269 237 228 158 155 254 245 135 163 199 227 262 320 51 55 60 58 64 82 95 63 84 193 190 191 196 196 209 208 171 153 167 159 154 165 160 134 111 86 75 37 357 341 349 335 329
247 249 256 256 262 207 144 195 278 260 171 190 180 207 207 95 76 59 53 51 46 44 48 26 32 193 176 184 186 212 224 203 186 164 170 153 160 149 123 112 101 112 152 322 337 340 338 334 325
245 275 279 321 97 99 160 183 272 287 191 202 198 194 111 106 89 71 62 52 45 37 31 16 359 145 198 229 222 236 225 183 167 149 144 148 154 155 124 124 149 173 300 348 353 349 339 326 328
307 326 313 351 44 60 62 273 247 245 256 175 152 128 111 98 81 73 69 64 55 42 35 37 53 74 57 312 349 284 195 128 133 137 142 147 147 151 140 157 161 349 10 14 350 343 344 333 336
295 355 5 11 20 15 269 287 284 272 214 108 96 100 105 107 101 90 77 74 66 53 45 45 47 51 44 35 52 68 116 153 169 160 152 144 136 133 144 92 80 355 5 359 350 346 339 328 327
323 25 15 357 11 298 51 280 288 295 97 104 98 97 115 118 117 111 107 108 107 96 83 48 45 46 42 38 48 52 48 106 210 181 167 132 126 141 122 118 315 358 354 349 339 338 339 333 324
105 39 342 304 307 356 290 4 264 133 116 112 128 130 125 140 117 118 125 129 121 121 105 87 61 44 38 39 38 42 45 49 49 67 81 77 34 92 123 142 112 349 346 347 343 331 327 325 314
320 341 318 264 170 301 261 179 311 125 142 131 126 106 82 83 76 52 86 75 83 97 105 106 73 51 15 6 8 22 28 22 24 13 9 11 32 55 39 15 357 342 340 340 332 331 326 319 311
1 45 333 356 91 208 334 47 21 59 69 78 76 75 75 76 74 73 74 73 66 60 56 58 42 35 13 346 340 329 323 332 15 19 9 23 19 360 5 353 354 347 337 334 331 329 325 318 310
307 109 122 320 38 276 314 37 41 65 85 86 80 86 75 68 81 89 89 79 63 50 35 27 11 353 352 5 7 327 302 304 308 294 275 293 322 341 331 335 335 335 333 332 329 325 319 314 312
325 62 273 9 328 45 117 63 33 44 72 57 58 64 78 59 57 67 53 54 56 42 26 356 338 344 338 336 305 304 338 302 286 291 281 276 273 273 292 305 311 316 323 326 324 321 317 313 312
192 281 25 358 146 289 319 57 112 40 48 29 11 57 44 41 43 36 38 32 27 23 36 29 19 17 10 348 350 330 306 283 320 288 286 288 286 291 289 292 302 303 316 317 322 321 320 317 314
15 20 12 95 91 159 341 283 92 43 31 75 73 63 43 44 26 25 24 22 14 9 10 12 9 5 357 357 347 338 330 320 287 265 240 272 324 331 319 310 308 303 307 315 309 330 329 326 320
72 10 86 112 305 181 164 267 357 6 57 49 43 44 39 37 28 20 17 9 1 359 2 3 357 350 349 338 334 335 329 325 326 312 297 288 292 298 311 309 310 307 300 302 315 325 323 321 321
Height
766 764 765 767 795 790 794 768 741 775 782 766 765 768 769 765 778 798 772 767 769 772 774 776 777 780 782 784 786 788 790 792 794 796 798 800 802 805 806 808 810 811 813 815 816 817 818 819 819
762 761 762 766 802 816 795 752 753 758 750 757 756 764 770 776 761 762 768 768 770 773 775 776 778 780 783 785 787 789 790 792 795 797 799 801 803 805 807 809 811 813 814 815 816 817 819 819 820
761 760 770 784 795 809 791 746 746 749 742 747 755 744 752 762 755 758 764 768 771 774 775 776 779 782 784 785 787 790 792 793 796 798 800 802 804 806 809 810 812 813 815 816 817 817 818 819 820
762 761 766 792 798 770 755 742 731 739 736 732 737 753 743 744 748 757 764 768 773 774 776 777 780 783 785 786 788 791 792 794 796 798 800 802 804 806 808 810 812 813 815 816 817 817 818 819 820
761 764 792 794 789 764 739 732 725 735 736 734 730 755 753 746 750 757 763 767 770 774 777 778 782 784 785 788 790 792 793 794 795 797 800 801 803 805 807 809 811 813 814 815 816 817 817 817 818
775 770 805 808 790 756 738 731 729 742 736 746 745 750 754 748 751 753 758 763 768 772 776 780 783 785 786 789 791 792 793 795 796 798 799 801 802 803 805 807 809 811 812 813 814 814 815 816 816
777 788 799 795 797 776 751 738 740 745 749 749 735 757 752 748 749 752 756 760 763 766 770 774 780 784 786 789 792 793 794 795 796 797 800 801 803 804 806 807 808 810 811 813 814 814 814 814 815
768 782 793 790 800 795 756 753 741 742 748 733 733 763 762 745 748 750 754 756 759 763 767 771 774 777 783 788 791 792 793 794 796 798 800 802 804 806 808 809 810 811 812 812 813 813 814 813 812
758 797 807 795 791 787 763 770 745 739 740 739 737 743 743 744 747 750 753 757 758 762 765 770 774 777 781 786 788 790 791 793 796 799 802 804 806 807 809 810 811 811 812 813 813 813 813 812 811
772 798 792 777 775 777 769 772 762 758 756 752 749 744 745 746 747 752 753 753 758 760 766 770 772 777 780 783 784 787 789 792 796 800 802 804 806 808 810 810 811 812 812 812 812 812 812 811 811
772 788 771 769 764 764 772 772 759 766 771 763 762 753 749 749 750 750 750 753 750 760 765 769 772 776 779 780 782 785 788 791 795 799 801 803 804 804 804 805 808 810 811 812 810 810 810 810 809
778 767 763 763 758 765 772 758 766 763 759 755 754 752 753 754 754 753 753 755 754 761 766 770 773 776 777 780 781 784 787 792 794 796 798 800 802 804 806 807 808 808 808 809 811 809 807 808 808
770 763 758 752 755 760 760 766 765 762 751 745 751 752 754 755 756 755 755 759 760 763 768 771 773 776 777 780 780 783 787 791 792 794 797 798 801 803 804 806 808 811 810 808 810 809 807 806 806
756 752 751 751 754 756 765 768 762 755 750 750 752 754 752 754 756 754 756 759 760 765 769 771 773 775 776 778 780 784 789 791 792 794 798 803 802 806 808 809 805 809 808 810 810 807 807 806 804
750 762 755 754 757 757 754 765 767 753 747 750 753 752 750 751 752 753 754 759 762 762 766 768 770 772 775 777 780 783 787 790 791 793 795 796 798 805 803 807 814 807 808 806 808 807 805 804 803
764 763 785 758 753 749 761 786 761 748 748 754 750 750 751 752 752 754 754 758 762 764 766 770 772 772 773 776 779 781 785 788 789 792 794 796 797 801 805 807 808 807 804 804 807 807 804 803 801
776 799 787 766 744 748 760 773 754 744 747 752 752 752 751 753 757 758 760 762 763 764 769 771 772 774 775 777 779 781 784 788 791 794 796 798 799 803 807 802 803 801 804 806 807 805 803 802 800
798 789 780 771 738 737 762 767 753 748 747 752 752 751 754 761 763 761 762 765 766 767 770 771 775 777 778 780 782 784 786 788 791 793 795 798 799 802 800 800 799 802 806 806 805 803 802 802 802
766 771 773 755 741 753 765 762 759 751 750 757 756 755 762 764 764 764 767 769 771 771 772 776 777 778 781 783 784 785 785 787 789 792 794 795 797 798 799 799 803 805 804 804 803 802 802 801 800
763 770 773 758 749 758 763 768 758 753 750 751 758 757 762 764 766 768 771 774 778 780 781 781 782 783 785 787 785 786 790 791 791 795 799 799 798 799 799 803 803 804 804 803 804 803 801 799 798
763 773 775 774 762 759 766 780 765 748 743 748 750 753 757 762 768 768 770 776 781 783 785 787 789 788 788 788 790 791 791 794 793 793 797 798 797 798 800 803 803 803 802 802 801 800 799 797 796
775 763 767 772 786 806 772 821 777 755 756 753 757 757 759 762 765 768 775 779 782 785 788 791 792 793 794 793 793 794 795 795 794 794 798 794 795 799 801 802 802 802 801 800 799 798 797 796 794
774 764 772 774 789 793 788 810 783 758 767 765 761 760 761 762 766 773 775 779 783 786 789 793 795 795 795 796 797 797 799 801 799 799 799 796 797 798 798 799 799 799 798 798 798 796 795 794 792
757 766 773 777 794 824 787 798 794 769 767 765 760 762 765 769 775 778 782 786 789 792 794 797 796 794 794 794 795 798 799 800 799 800 800 799 798 798 798 798 797 797 796 796 795 793 792 791 790
770 795 827 823 822 823 774 779 796 773 772 777 780 781 783 782 784 786 790 792 793 796 800 801 800 799 798 796 794 795 796 796 797 798 799 799 799 799 797 796 796 796 796 795 794 792 790 789 787
784 787 829 835 837 825 783 811 808 777 775 776 779 782 784 787 786 788 791 792 793 795 795 795 795 795 796 798 800 797 795 794 793 792 791 794 796 796 796 796 795 795 794 794 792 790 789 787 784
788 807 783 808 805 827 810 798 784 777 780 780 782 783 786 789 791 791 793 796 796 799 796 796 796 794 793 790 796 794 795 796 793 792 792 790 790 791 792 792 792 791 791 790 790 787 785 782 780
780 778 820 826 835 832 817 818 821 804 797 793 793 796 794 795 796 798 800 801 802 802 802 802 800 798 796 796 792 792 790 791 791 792 792 792 789 788 788 788 789 790 788 787 783 783 781 778 776
797 806 807 815 824 846 851 834 799 809 799 804 803 804 805 806 803 803 803 804 804 802 801 801 800 800 799 797 795 792 789 787 787 785 784 789 788 787 784 786 784 787 786 784 786 773 777 775 773
782 792 801 849 834 836 849 848 796 798 807 809 813 812 813 813 812 811 809 807 805 804 803 803 802 801 799 796 794 792 789 786 785 783 783 783 782 780 783 782 780 781 781 779 778 772 773 772 770